AirNav   Everest Fuels
 
 1478 users online  

5Y1 Albert J Lindberg Airport
Hessel, Michigan, USA

GOING TO HESSEL?


FAA INFORMATION EFFECTIVE 10 SEPTEMBER 2020

Location

FAA Identifier: 5Y1
Lat/Long: 46-02-07.5450N 084-25-03.7300W
46-02.125750N 084-25.062167W
46.0354292,-84.4177028
(estimated)
Elevation: 760 ft. / 232 m (estimated)
Variation: 06W (1985)
From city: 2 miles N of HESSEL, MI
Time zone: UTC -4 (UTC -5 during Standard Time)
Zip code: 49719

Airport Operations

Airport use: Open to the public
Activation date: 04/1940
Control tower: no
ARTCC: TORONTO CENTER
FSS: GREEN BAY FLIGHT SERVICE STATION
NOTAMs facility: GRB (NOTAM-D service available)
Attendance: UNATNDD
Wind indicator: yes
Segmented circle: yes
Lights: ACTVT PAPI RWY 09 & 27; MIRL RWY 9/27 - CTAF.
Beacon: white-green (lighted land airport)
Operates sunset to sunrise.

Airport Communications

CTAF: 122.9
WX AWOS-3PT at CIU (13 nm N): 127.575 (906-495-7134)
WX AWOS-3 at MCD (14 nm SW): 118.275 (906-847-3778)

Nearby radio navigation aids

VOR radial/distance  VOR name  Freq  Var
SSMr195/23.0SAULT STE MARIE VOR/DME112.2004W
PLNr029/26.4PELLSTON VORTAC111.8006W

Airport Services

Parking: hangars and tiedowns

Runway Information

Runway 9/27

Dimensions: 3700 x 60 ft. / 1128 x 18 m
Surface: asphalt, in fair condition
Weight bearing capacity: 
Single wheel: 30.0
Double wheel: 60.0
Runway edge lights: medium intensity
Runway edge markings: MARKINGS ARE FADED.
RUNWAY 9  RUNWAY 27
Latitude: 46-02.132333N46-02.119167N
Longitude: 084-25.499333W084-24.624333W
Elevation: 760.0 ft.760.0 ft.
Traffic pattern: leftleft
Displaced threshold: 187 ft.no
Markings: basic, in fair conditionbasic, in fair condition
Visual slope indicator: 2-light PAPI on left (4.00 degrees glide path)2-light PAPI on left (3.50 degrees glide path)
Obstructions: 15 ft. road, 258 ft. from runway, 3:1 slope to clear
APCH RATIO 20:1 AT DSPLCD THLD.
56 ft. trees, 1320 ft. from runway, 20:1 slope to clear

Airport Ownership and Management from official FAA records

Ownership: Publicly-owned
Owner: CLARK TOWNSHIP
PO BOX 367
CEDARVILLE, MI 49719
Phone 906-484-2672
Manager: JOSEPH BAKER
P.O. BOX 367
CEDARVILLE, MI 49719
Phone 906-430-8034
906-484-2672.

Airport Operational Statistics

Aircraft based on the field: 7
Single engine airplanes: 7
    
Aircraft operations: avg 21/month *
80% transient general aviation
20% local general aviation
* for 12-month period ending 31 December 2018

Additional Remarks

FOR FICONS CALL 906-484-2672.
FOR AV GAS CALL (616) 293-5849.
FOR CD CTC MINNEAPOLIS ARTCC AT 651-463-5588.

Instrument Procedures

There are no published instrument procedures at 5Y1.

Some nearby airports with instrument procedures:

KCIU - Chippewa County International Airport (13 nm N)
KMCD - Mackinac Island Airport (14 nm SW)
83D - Mackinac County Airport (16 nm SW)
6Y1 - Bois Blanc Island Airport (17 nm S)
KSLH - Cheboygan County Airport (23 nm S)
 
Loc | Ops | Rwys | IFR | FBO | Links
Com | Nav | Svcs | Stats | Notes
Area around 5Y1 (Albert J Lindberg Airport)
 
Road maps at: MapQuest Bing Google
 
Aerial photo
WARNING: Photo may not be current or correct
Aerial photo of 5Y1 (Albert J Lindberg Airport)
Photo by Antonio Simao and Eric Wyn
Taken in June 2009

Do you have a better or more recent aerial photo of Albert J Lindberg Airport that you would like to share? If so, please send us your photo.

 
Sectional chart

 
Airport distance calculator
Flying to Albert J Lindberg Airport? Find the distance to fly.

From to 5Y1

Sunrise and sunset
Times for 24-Sep-2020
 Local
(UTC-4)
 Zulu
(UTC)
Morning civil twilight07:0011:00
Sunrise07:2911:29
Sunset19:2923:29
Evening civil twilight19:5923:59

Current date and time
Zulu (UTC)  24-Sep-2020 20:50:24
Local (UTC-4)  24-Sep-2020 16:50:24
 
METAR
KCIU 
13nm N 
242024Z AUTO 12008KT 5SM -RA BR OVC014 13/12 A2997 RMK AO2 P0000
KMCD 
14nm SW 
242035Z AUTO 09006G16KT 10SM OVC004 13/13 A2996 RMK AO2 T01300130
KSLH 
23nm S 
242035Z AUTO 06008KT 5SM BR OVC004 15/14 A2993 RMK AO2 T01480142
KANJ 
26nm N 
241955Z AUTO 13004KT 10SM OVC023 16/12 A2997 RMK AO2 SLP148 T01560117
TAF
CYAM 
27nm N 
241939Z 2420/2508 14005KT P6SM SCT020 OVC060 TEMPO 2420/2506 P6SM -SHRA BKN020 OVC060 FM250600 10008KT P6SM FEW005 OVC020 RMK NXT FCST BY 250200Z
KPLN 
32nm SW 
241749Z 2418/2518 10008KT P6SM OVC005 FM241900 08005KT P6SM OVC008 FM242000 08005KT P6SM OVC011 FM250500 VRB03KT 4SM BR BKN004 FM251200 VRB04KT 3SM BR BKN011 FM251400 20006KT P6SM BKN020
NOTAMs
Click for the latest NOTAMs
NOTAMs are issued by the DoD/FAA and will open in a separate window not controlled by AirNav.

 

 
 

FBO, Fuel Providers, and Aircraft Ground Support

  
 Business Name 
 
 Contact 
 
 Services / Description 
 
Fuel Prices
 
Comments
  
Albert J. Lindberg Airport/Clark Township 616-293-5849
no information available

If you are affiliated with Albert J. Lindberg Airport/Clark Township and would like to show here your services, contact info, web link, logo, and more, click here
100LL
SS $5.25 
 Updated 05-Aug-2019
 
   write
SS=Self service
Update Fuel Prices
 

Would you like to see your business listed on this page?

 If your business provides an interesting product or service to pilots, flight crews, aircraft, or users of the Albert J Lindberg Airport, you should consider listing it here.  To start the listing process, click on the button below
 
Add a business
 

Other Pages about Albert J Lindberg Airport

Page from the Michigan Airport Directory (PDF)
 
Update a link
 
Copyright © AirNav, LLC. All rights reserved. Privacy Policy  Contact